Location: ?????????
(41.2286°N, 23.0068°E)
Time: 09:10:54
(UTC+00:00)

Cosmos 2016 Rocket - Pass Details

Date: 08 November 2025
Orbit: 947 x 999 km, 83.0° (Epoch: 04 December)

Event Time Altitude Azimuth Distance (km) Brightness Sun altitude
Rises 04:02:34 0° 347° (NNW) 3,730 6.8 -12.6°
Reaches altitude 10° 04:05:10 10° 343° (NNW) 2,776 6.1 -12.1°
Maximum altitude 04:11:19 53° 269° (W) 1,214 4.2 -10.9°
Drops below altitude 10° 04:17:24 10° 194° (SSW) 2,745 6.4 -9.8°
Sets 04:19:58 0° 190° (S) 3,683 7.1 -9.4°
